CST,Max TemperatureF,Mean TemperatureF,Min TemperatureF,Max Dew PointF,MeanDew PointF,Min DewpointF,Max Humidity, Mean Humidity, Min Humidity, Max Sea Level PressureIn, Mean Sea Level PressureIn, Min Sea Level PressureIn, Max VisibilityMiles, Mean VisibilityMiles, Min VisibilityMiles, Max Wind SpeedMPH, Mean Wind SpeedMPH, Max Gust SpeedMPH,PrecipitationIn, CloudCover, Events, WindDirDegrees
2013-2-1,12,2,-7,9,-5,-15,85,72,57,30.32,30.18,30.01,10,9,2,17,10,25,0.00,4,Snow,212
2013-2-2,17,10,3,14,5,0,92,81,67,30.16,30.06,29.94,10,8,2,16,5,21,0.00,7,Snow,279
2013-2-3,17,11,5,14,9,0,93,81,67,30.09,30.01,29.90,10,6,1,22,13,29,0.00,7,Snow,311
2013-2-4,17,9,1,16,5,0,93,79,62,30.05,29.95,29.80,10,9,2,15,9,17,0.05,3,Snow,65
2013-2-5,32,16,1,30,19,-2,100,87,74,30.09,29.87,29.70,10,8,1,21,14,24,0.00,6,Snow,257
2013-2-6,35,18,0,32,19,-4,93,85,69,30.11,29.99,29.89,10,9,5,18,6,23,0.01,3,,151
2013-2-7,32,24,17,30,22,14,100,91,80,30.23,30.07,29.93,10,4,0,17,8,20,0.00,7,Fog,354
2013-2-8,26,24,23,21,20,18,86,82,74,30.36,30.29,30.22,10,10,10,16,7,23,0.00,8,,118
2013-2-9,32,28,24,30,25,21,93,87,80,30.22,30.05,29.90,10,7,5,22,15,31,0.00,8,,155
2013-2-10,35,34,30,34,31,28,100,93,87,29.88,29.47,29.25,10,4,0,25,15,33,0.35,8,Fog-Rain-Snow,125
2013-2-11,30,24,17,28,20,14,100,87,80,30.07,29.82,29.37,10,6,1,32,21,39,0.00,7,Snow,286
2013-2-12,35,26,17,30,21,14,93,83,69,30.07,29.94,29.83,10,10,10,18,10,20,0.03,2,Snow,225
2013-2-13,37,27,17,32,25,14,93,88,75,29.83,29.70,29.58,10,10,5,15,7,20,0.01,5,Rain,218
2013-2-14,33,22,12,32,22,5,93,83,63,30.20,29.90,29.59,10,8,2,20,14,25,0.00,4,Snow,302
2013-2-15,17,11,5,9,5,1,85,77,67,30.31,30.27,30.20,10,10,10,18,11,22,0.00,1,,293
2013-2-16,21,14,8,14,9,5,86,81,68,30.26,30.17,30.08,10,7,1,12,6,,0.00,4,Snow,32
2013-2-17,33,24,14,27,19,10,86,78,69,30.08,29.88,29.60,10,10,10,24,13,32,0.00,0,,139
2013-2-18,32,18,3,30,16,0,93,82,69,29.85,29.67,29.54,10,8,1,36,18,40,0.00,5,Snow,259
2013-2-19,3,0,-4,0,-6,-9,85,76,72,30.36,30.13,29.86,10,5,1,29,23,37,0.00,5,Snow,292
2013-2-20,14,4,-7,5,-3,-13,79,72,61,30.43,30.40,30.35,10,10,10,12,7,,0.00,0,,5
2013-2-21,21,14,6,14,8,1,85,74,68,30.38,30.25,30.01,10,10,1,17,9,25,0.00,2,Snow,64
2013-2-22,24,18,12,19,17,9,93,88,74,29.98,29.90,29.85,10,5,1,18,12,22,0.00,7,Snow,350
2013-2-23,21,11,1,14,11,0,93,83,73,29.96,29.90,29.87,10,10,7,13,7,,0.00,4,Snow,235
2013-2-24,30,15,0,23,12,-6,93,79,64,30.09,30.04,29.96,10,10,7,9,3,,0.00,3,,99
2013-2-25,32,24,17,28,23,14,100,87,80,30.11,30.07,30.02,10,4,1,6,1,,0.00,7,,28
2013-2-26,32,23,14,27,22,12,100,85,69,30.03,29.91,29.84,10,5,0,18,9,23,0.00,2,Fog,8
2013-2-27,33,27,21,27,24,19,93,83,74,30.02,29.89,29.84,10,10,7,21,12,25,0.00,4,,333
2013-2-28,30,26,21,23,21,19,93,80,69,30.19,30.12,30.03,10,10,5,15,10,17,0.00,8,Snow,342